Miscellaneous Local Product
Issued by NWS North Platte, NE

Home | Current Version | Previous Version | Graphics & Text | Print | Product List | Glossary On
Versions: 1 2 3 4 5 6 7 8 9 10 11 12 13 14 15 16 17 18 19 20 21 22 23 24 25 26 27 28 29 30 31 32 33 34 35 36 37 38 39 40 41 42 43 44 45 46 47 48 49 50
000
AXUS43 KLBF 010710
MISLBF


WESTERN AND NORTH CENTRAL NEBRASKA HOURLY WEATHER ROUNDUP
NATIONAL WEATHER SERVICE NORTH PLATTE NE
200 AM CDT SAT AUG 01 2015

***STATIONS NOT REPORTING VARIABLES SUCH AS SKY/WEATHER OR
PRESSURE ARE PROVIDED BY THE NEBRASKA DEPARTMENT OF
ROADS...RAWS...AND APRS NETWORKS...AND ARE NOT UNDER
NATIONAL WEATHER SERVICE QUALITY CONTROL***

...OBSERVATIONS IN AND NEAR THE EASTERN PANHANDLE OF NEBRASKA...

CITY           SKY/WX    TMP DP  RH WIND       PRES   REMARKS
PINE RIDGE     CLEAR     71  54  54 NE5       30.11F
CHADRON        CLEAR     65  54  67 NE3       30.10F
ALLIANCE       CLEAR     60  55  83 SE8       30.14F
SIDNEY         CLEAR     63  55  75 S7        30.19F
BIG SPRINGS      N/A     67  58  73 CALM        N/A
$$

...OBSERVATIONS IN NORTH CENTRAL NEBRASKA...

CITY           SKY/WX    TMP DP  RH WIND       PRES   REMARKS
VALENTINE      PTCLDY    68  60  75 E5        30.12F
THEDFORD       CLEAR     68  60  76 SE3       30.13F
AINSWORTH      CLEAR     66  63  88 SE7       30.14F
O`NEILL        MOCLDY    69  65  87 CALM      30.13F
ORD            CLEAR     63  62  97 CALM      30.10F
BROKEN BOW     PTCLDY    66  59  78 VRB3      30.12F
SPRINGVIEW       N/A     65  60  85 CALM        N/A
CHAMBERS         N/A     66  62  86 CALM        N/A
EWING            N/A     64  62  92 CALM        N/A
$$

...OBSERVATIONS IN SOUTHWEST NEBRASKA AND FAR NORTHEAST COLORADO...

CITY           SKY/WX    TMP DP  RH WIND       PRES   REMARKS
WRAY           FAIR      70  57  63 SW8       30.17S
IMPERIAL       CLEAR     71  58  63 SW6       30.14F
OGALLALA       CLEAR     67  62  84 SE3       30.14F
NORTH PLATTE   CLEAR     63  60  90 E7        30.12F
MCCOOK         PTCLDY    72  62  71 E8        30.13F
LEXINGTON      PTCLDY    67  62  83 W5        30.13S
PAXTON           N/A     67  62  85 CALM        N/A
BRADY            N/A     64  60  86 CALM        N/A
CALLAWAY         N/A     64  62  92 S7          N/A
$$

...NORTH PLATTE AREA...

CITY           SKY/WX    TMP DP  RH WIND       PRES   REMARKS
AIRPORT        CLEAR     63  60  90 E7        30.12F
DOWNTOWN         N/A     69  61  77 CALM        N/A
SANDRIDGE        N/A     68  61  78 E3          N/A
HILLCREST        N/A     66  61  84 E6          N/A
$$

...SOME WEATHER OBSERVATIONS FROM AROUND THE REGION...

CITY           SKY/WX    TMP DP  RH WIND       PRES   REMARKS
DENVER         PTCLDY    67  51  56 S10       30.24S
LARAMIE        CLEAR     60  46  59 S10       30.34S
CHEYENNE       CLEAR     63  50  62 W6        30.28S
SCOTTSBLUFF    CLEAR     65  56  72 E8        30.14F
RAPID CITY     CLEAR     67  54  63 S6        30.11F
PIERRE         CLEAR     72  60  66 S14       30.02F
WINNER         FAIR      73  63  70 S12       30.08F
SIOUX FALLS    CLEAR     71  63  75 SW6       30.06S
OMAHA          PTCLDY    73  68  84 S5        30.07F
GRAND ISLAND   MOCLDY    68  63  84 NE8       30.11R
KANSAS CITY    PTCLDY    73  68  84 S8        30.06F
WICHITA        CLEAR     75  71  87 S5        30.09F
HAYS           CLEAR     72  63  73 S8        30.12S
LIBERAL        CLOUDY    72  66  83 CALM      30.17R
GOODLAND       CLEAR     71  59  65 SW12      30.19F
$$



USA.gov is the U.S. government's official web portal to all federal, state and local government web resources and services.